Location: McFarlands Corners
(41.4117°N, 81.3382°W)
Time: 18:00:25
(UTC+00:00)

BlueWalker 3 - Pass Details

Date: 26 January 2026
Orbit: 450 x 461 km, 53.2° (Epoch: 11 February)

Event Time Altitude Azimuth Distance (km) Brightness Sun altitude
Rises 00:28:07 0° 281° (WNW) 2,454 6.7 -21.6°
Reaches altitude 10° 00:30:52 10° 304° (NW) 1,582 5.1 -22.1°
Maximum altitude 00:33:10 16° 345° (NNW) 1,258 4.0 -22.5°
Enters shadow 00:33:16 16° 347° (NNW) 1,259 4.0 -22.5°
